Tracking 22081 objects as of 5-Dec-2020
HD Live streaming from Space Station
objects crossing your sky now

AYAME 1 DEB

Track AYAME 1 DEB now!


NORAD ID: 32483
Int'l Code: 1979-009D
Perigee: 12,452.0 km
Apogee: 34,247.5 km
Inclination: 9.6 °
Period: 849.9 minutes
Semi major axis: 29720 km
RCS: 0.003 m2 (small)
Launch date: February 6, 1979
Source: Japan (JPN)
Launch site: TANEGASHIMA SPACE CENTER (TNSTA)

Note: This is SATELLITE DEBRIS
aabbcc
Your satellite tracking list
Your tracking list is empty




NASA's NSSDC Master Catalog

Two Line Element Set (TLE):
1 32483U 79009D   20339.03017039 -.00000066  00000-0  00000-0 0  9998
2 32483   9.5963  35.3838 3666703 309.5004   5.8375  1.69438806 78778
Source of the keplerian elements: AFSPC